Flag for U.S.A. Weather past 2 weeks in Oklahoma City, Oklahoma, U.S.A.

Now
76 °F

Light rain. Mostly cloudy.


Feels Like: 78 °F
Forecast: 59 / 76 °F
Wind: 21 mph from Southeast

Location: Will Rogers World Airport


UV Index: 5 (Moderate)

Visibility: 10 mi


Pressure: 29.68 "Hg

Humidity: 52%

Dew point: 57 °F

Location of Oklahoma CityLocation

Historic Weather in Oklahoma City

°F

Oklahoma City temperature yesterday

Maximum temperature yesterday: 81 °F (at 4:52 PM)
Minimum temperature yesterday: 52 °F (at 6:52 AM)
Average temperature yesterday: 67 °F

Past Weeks' High & Low Weather Summary

 TemperatureHumidityPressure
High86 °F (Apr 10, 2:52 PM)93% (Apr 21, 4:52 AM)30.28 "Hg (Apr 21, 4:52 AM)
Low30 °F (Apr 15, 2:52 AM)12% (Apr 15, 2:52 PM)29.39 "Hg (Apr 13, 2:52 PM)
Average62 °F53%29.97 "Hg
* Reported Apr 8 8:52 PM — Apr 23 8:52 PM, Oklahoma City, Weather by CustomWeather, © 2014

Note: Actual official high and low records may vary slightly from our data, if they occured in-between our weather recording intervals... More about our weather records

Advertising

Historic Weather Conditions — Data for Previous 24 hours

 ConditionsComfort  
Time TempWeatherWind HumidityBarometerVisibility
8:52 PM
Apr 23
76 °FLight rain. Mostly cloudy.21 mph52%29.68 "Hg10 mi
7:52 PM78 °FMostly cloudy.18 mph43%29.66 "Hg10 mi
6:52 PM79 °FCloudy.20 mph41%29.65 "Hg10 mi
5:52 PM81 °FBroken clouds.21 mph38%29.67 "Hg10 mi
4:52 PM84 °FPartly sunny.23 mph36%29.69 "Hg10 mi
3:52 PM86 °FBroken clouds.20 mph31%29.72 "Hg10 mi
2:52 PM86 °FPartly sunny.22 mph32%29.75 "Hg10 mi
1:52 PM84 °FPartly sunny.23 mph37%29.76 "Hg10 mi
12:52 PM83 °FScattered clouds.25 mph40%29.79 "Hg10 mi
11:52 AM80 °FScattered clouds.25 mph44%29.82 "Hg10 mi
10:52 AM76 °FScattered clouds.22 mph47%29.84 "Hg10 mi
9:52 AM72 °FScattered clouds.24 mph52%29.86 "Hg10 mi
8:52 AM66 °FPassing clouds.15 mph54%29.88 "Hg10 mi
7:52 AM58 °FPassing clouds.10 mph60%29.87 "Hg10 mi
6:52 AM51 °FPassing clouds.10 mph66%29.86 "Hg10 mi
5:52 AM52 °FPassing clouds.8 mph66%29.85 "Hg10 mi
4:52 AM49 °FPassing clouds.9 mph77%29.86 "Hg10 mi
3:52 AM52 °FPassing clouds.7 mph69%29.87 "Hg10 mi
2:52 AM55 °FPassing clouds.9 mph62%29.88 "Hg10 mi
1:52 AM56 °FPassing clouds.10 mph62%29.90 "Hg10 mi
12:52 AM58 °FPassing clouds.5 mph54%29.92 "Hg10 mi
11:52 PM
Apr 22
58 °FPassing clouds.6 mph56%29.92 "Hg10 mi
10:52 PM61 °FPassing clouds.5 mph48%29.93 "Hg10 mi
9:52 PM60 °FPassing clouds.8 mph52%29.93 "Hg10 mi
Weather by CustomWeather, © 2014

See weather overview